Weather in Bratoliubivka

Ukraine / Kirovohrad Region     48°18′15″N   31°11′30″E
temp.,
°C
wind,
m/s
gust,
m/s
humid.,
%
clouds,
%
prec.,
mm/h
press.,
hPa
HPBL,
m
20 april, tue
tue2000:00+7ene367597 0.0 1013143
03:00+5ne35795 0.0 1012102
06:00+5nne3581100 0.0 101099
09:00+9nne4666100 0.0 1010554
12:00+12nne6750100 0.0 10071708
15:00+12nnw6650100 0.1 10071655
18:00+12nnw565786 0.0 10071326
21:00+8wnw3468100 0.0 100957
21 april, wed
wed2100:00+6wnw35805 0.0 101074
03:00+5wnw338469 0.0 101133
06:00+5wsw228880 0.0 101217
09:00+9wsw346850 0.0 1013497
12:00+13wsw565589 0.3 10131510
15:00+15w5746100 1.1 10132160
18:00+14wsw465578 0.2 10131261
21:00+9sw3475100 0.8 101563
22 april, thu
thu2200:00+8sw347988 0.3 101653
03:00+7ssw358237 0.3 101779
06:00+6s34791 0.0 101747
09:00+12ssw46655 0.0 1018359
12:00+17ssw674637 0.0 10182191
15:00+16ssw585184 0.0 1017932
18:00+16s685131 0.0 10171399
21:00+12s6126787 0.0 1018339
23 april, fri
fri2300:00+10s61275100 0.0 1018288
03:00+9s5118298 0.0 1018269
06:00+8s5118612 0.0 1017246
09:00+13s712695 0.0 1017534
12:00+17ssw911536 0.3 10161609
15:00+18ssw9114722 1.3 10142091
18:00+11wnw4785100 5.6 1014523
21:00+5nnw61095100 19.8 1019652
24 april, sat
sat2400:00+5nw4887100 4.1 1019589
03:00+4w48935 4.2 1019316
06:00+3wnw512890 0.0 1019393
09:00+6nw812582 0.0 10211146
12:00+7nw912435 0.0 10221737
15:00+9nw8113969 0.0 10212063
18:00+9nw610435 0.0 10222070
21:00+6ssw22559 0.0 102210